DEDLP EDLE-EDNY

Flight info

Callsign DEDLP
Flight time N/A
Altitude 5000
Route BAM DCT KBO DCT TAU DCT KRH DCT SUL
Aircraft PA24/L-SDGRY/S

Departure

Time N/A
Airport Essen-Mülheim Airport (EDLE)

Arrival

Time 2026-04-24 12:11
Airport Bodensee Airport Friedrichshafen (EDNY)
Time Latitude Longitude Altitude Speed Heading
2026-04-24 11:04 50.28475 8.10644 7269 ft 170 kts 130°
2026-04-24 11:04 50.27657 8.11976 7261 ft 169 kts 130°
2026-04-24 11:05 50.26845 8.13306 7260 ft 169 kts 130°
2026-04-24 11:05 50.26040 8.14636 7259 ft 168 kts 130°
2026-04-24 11:05 50.25229 8.15961 7258 ft 169 kts 132°
2026-04-24 11:05 50.24296 8.17075 7261 ft 169 kts 147°
2026-04-24 11:06 50.23214 8.17790 7259 ft 170 kts 163°
2026-04-24 11:06 50.22054 8.18145 7258 ft 170 kts 171°
2026-04-24 11:06 50.20878 8.18397 7258 ft 170 kts 172°
2026-04-24 11:06 50.19702 8.18668 7260 ft 171 kts 170°
2026-04-24 11:07 50.17346 8.19217 7261 ft 171 kts 171°
2026-04-24 11:07 50.16185 8.19513 7259 ft 171 kts 169°
2026-04-24 11:07 50.15012 8.19849 7258 ft 172 kts 169°
2026-04-24 11:08 50.13839 8.20196 7261 ft 171 kts 168°
2026-04-24 11:08 50.12674 8.20571 7260 ft 171 kts 168°
2026-04-24 11:08 50.11509 8.20954 7258 ft 171 kts 167°
2026-04-24 11:08 50.10344 8.21342 7257 ft 171 kts 167°
2026-04-24 11:09 50.09184 8.21732 7260 ft 171 kts 167°
2026-04-24 11:09 50.08018 8.22106 7261 ft 171 kts 168°
2026-04-24 11:09 50.06856 8.22496 7260 ft 171 kts 167°
2026-04-24 11:09 50.05695 8.22898 7260 ft 171 kts 167°
2026-04-24 11:10 50.04536 8.23296 7258 ft 171 kts 167°
2026-04-24 11:10 50.03375 8.23688 7259 ft 171 kts 167°
2026-04-24 11:10 50.02213 8.24081 7261 ft 171 kts 167°
2026-04-24 11:10 50.01063 8.24468 7261 ft 171 kts 167°
2026-04-24 11:11 49.99901 8.24889 7259 ft 171 kts 166°
2026-04-24 11:11 49.98739 8.25289 7260 ft 171 kts 167°
2026-04-24 11:11 49.97576 8.25675 7260 ft 171 kts 167°
2026-04-24 11:11 49.96414 8.26064 7259 ft 171 kts 167°
2026-04-24 11:12 49.95251 8.26456 7261 ft 171 kts 166°
2026-04-24 11:12 49.94087 8.26858 7260 ft 171 kts 167°
2026-04-24 11:12 49.92919 8.27249 7259 ft 172 kts 167°
2026-04-24 11:12 49.91750 8.27638 7259 ft 172 kts 167°
2026-04-24 11:13 49.90583 8.28024 7259 ft 171 kts 167°
2026-04-24 11:13 49.89423 8.28426 7261 ft 171 kts 167°
2026-04-24 11:13 49.88254 8.28819 7259 ft 171 kts 167°
2026-04-24 11:13 49.87089 8.29216 7260 ft 171 kts 167°
2026-04-24 11:14 49.85924 8.29608 7260 ft 171 kts 167°
2026-04-24 11:14 49.84777 8.30009 7260 ft 171 kts 166°
2026-04-24 11:14 49.83609 8.30402 7260 ft 171 kts 168°
2026-04-24 11:14 49.82440 8.30775 7257 ft 171 kts 167°
2026-04-24 11:15 49.81281 8.31171 7255 ft 171 kts 166°
2026-04-24 11:15 49.80117 8.31580 7252 ft 172 kts 167°
2026-04-24 11:15 49.78947 8.31960 7252 ft 172 kts 167°
2026-04-24 11:15 49.77780 8.32371 7251 ft 172 kts 167°
2026-04-24 11:16 49.76611 8.32767 7250 ft 172 kts 167°
2026-04-24 11:16 49.75443 8.33173 7250 ft 172 kts 166°
2026-04-24 11:16 49.74273 8.33568 7251 ft 172 kts 168°
2026-04-24 11:16 49.73113 8.33954 7251 ft 172 kts 166°
2026-04-24 11:17 49.71948 8.34369 7251 ft 172 kts 167°
2026-04-24 11:17 49.70780 8.34769 7251 ft 172 kts 167°
2026-04-24 11:17 49.69611 8.35145 7251 ft 172 kts 167°
2026-04-24 11:17 49.68447 8.35537 7250 ft 171 kts 167°
2026-04-24 11:18 49.67285 8.35923 7252 ft 170 kts 167°
2026-04-24 11:18 49.66126 8.36307 7259 ft 170 kts 167°
2026-04-24 11:18 49.64962 8.36690 7261 ft 171 kts 167°
2026-04-24 11:18 49.63798 8.37072 7261 ft 171 kts 167°
2026-04-24 11:19 49.62632 8.37476 7261 ft 172 kts 166°
2026-04-24 11:19 49.61464 8.37871 7259 ft 171 kts 167°
2026-04-24 11:19 49.60300 8.38255 7260 ft 171 kts 167°
2026-04-24 11:19 49.59135 8.38638 7261 ft 172 kts 167°
2026-04-24 11:20 49.57963 8.39004 7260 ft 171 kts 168°
2026-04-24 11:20 49.56801 8.39396 7261 ft 171 kts 167°
2026-04-24 11:20 49.55639 8.39788 7263 ft 171 kts 167°
2026-04-24 11:20 49.54492 8.40153 7268 ft 171 kts 168°
2026-04-24 11:21 49.53327 8.40546 7268 ft 171 kts 166°
2026-04-24 11:21 49.52167 8.40954 7266 ft 171 kts 167°
2026-04-24 11:21 49.51009 8.41347 7261 ft 171 kts 167°
2026-04-24 11:21 49.49847 8.41735 7270 ft 171 kts 167°
2026-04-24 11:22 49.48690 8.42120 7270 ft 170 kts 167°
2026-04-24 11:22 49.47535 8.42521 7268 ft 170 kts 166°
2026-04-24 11:22 49.46380 8.42896 7267 ft 170 kts 168°
2026-04-24 11:22 49.45223 8.43264 7271 ft 170 kts 167°
2026-04-24 11:23 49.44072 8.43658 7270 ft 171 kts 167°
2026-04-24 11:23 49.42909 8.44049 7269 ft 171 kts 167°
2026-04-24 11:23 49.41741 8.44439 7270 ft 172 kts 167°
2026-04-24 11:23 49.40568 8.44826 7269 ft 171 kts 167°
2026-04-24 11:24 49.39408 8.45215 7267 ft 170 kts 167°
2026-04-24 11:24 49.38248 8.45593 7267 ft 170 kts 168°
2026-04-24 11:24 49.37094 8.45987 7267 ft 169 kts 167°
2026-04-24 11:24 49.35944 8.46368 7268 ft 169 kts 167°
2026-04-24 11:25 49.34792 8.46746 7270 ft 169 kts 168°
2026-04-24 11:25 49.33657 8.47112 7268 ft 169 kts 168°
2026-04-24 11:25 49.32504 8.47490 7269 ft 169 kts 167°
2026-04-24 11:25 49.31351 8.47869 7268 ft 169 kts 167°
2026-04-24 11:26 49.30200 8.48252 7262 ft 169 kts 167°
2026-04-24 11:26 49.29049 8.48644 7260 ft 169 kts 167°
2026-04-24 11:26 49.27898 8.49029 7261 ft 169 kts 167°
2026-04-24 11:26 49.26746 8.49408 7259 ft 169 kts 167°
2026-04-24 11:27 49.25595 8.49790 7261 ft 168 kts 167°
2026-04-24 11:27 49.24464 8.50174 7261 ft 169 kts 167°
2026-04-24 11:27 49.23310 8.50553 7258 ft 169 kts 167°
2026-04-24 11:27 49.22158 8.50923 7261 ft 169 kts 167°
2026-04-24 11:28 49.21005 8.51302 7259 ft 170 kts 167°
2026-04-24 11:28 49.19850 8.51690 7260 ft 169 kts 167°
2026-04-24 11:28 49.18705 8.52076 7259 ft 168 kts 167°
2026-04-24 11:28 49.17579 8.52441 7260 ft 168 kts 167°
2026-04-24 11:29 49.16435 8.52820 7253 ft 169 kts 167°
2026-04-24 11:29 49.15288 8.53188 7251 ft 168 kts 168°
2026-04-24 11:29 49.14145 8.53550 7250 ft 168 kts 168°
2026-04-24 11:29 49.12998 8.53924 7250 ft 168 kts 167°
2026-04-24 11:30 49.11854 8.54295 7243 ft 167 kts 167°
2026-04-24 11:30 49.10718 8.54666 7241 ft 166 kts 167°
2026-04-24 11:30 49.09586 8.55038 7241 ft 166 kts 167°
2026-04-24 11:30 49.08451 8.55410 7242 ft 168 kts 167°
2026-04-24 11:31 49.07307 8.55793 7239 ft 168 kts 167°
2026-04-24 11:31 49.06166 8.56170 7234 ft 168 kts 167°
2026-04-24 11:31 49.05016 8.56530 7234 ft 169 kts 168°
2026-04-24 11:31 49.03859 8.56938 7186 ft 170 kts 167°
2026-04-24 11:32 49.02731 8.57312 7240 ft 168 kts 167°
2026-04-24 11:32 49.01590 8.57684 7237 ft 168 kts 168°
2026-04-24 11:32 49.00451 8.58048 7234 ft 167 kts 168°
2026-04-24 11:32 48.99311 8.58415 7232 ft 167 kts 168°
2026-04-24 11:33 48.98159 8.58698 7234 ft 166 kts 174°
2026-04-24 11:33 48.96997 8.58825 7231 ft 167 kts 176°
2026-04-24 11:33 48.95834 8.58891 7232 ft 168 kts 178°
2026-04-24 11:33 48.94669 8.58994 7233 ft 168 kts 176°
2026-04-24 11:34 48.93518 8.59097 7233 ft 168 kts 177°
2026-04-24 11:34 48.92357 8.59193 7231 ft 167 kts 177°
2026-04-24 11:34 48.91197 8.59289 7232 ft 166 kts 177°
2026-04-24 11:34 48.90043 8.59394 7230 ft 166 kts 177°
2026-04-24 11:35 48.88887 8.59499 7230 ft 166 kts 177°
2026-04-24 11:35 48.87738 8.59599 7232 ft 166 kts 176°
2026-04-24 11:35 48.86581 8.59704 7232 ft 167 kts 177°
2026-04-24 11:35 48.85424 8.59815 7233 ft 167 kts 176°
2026-04-24 11:36 48.84270 8.59932 7232 ft 166 kts 175°
2026-04-24 11:36 48.83121 8.60058 7232 ft 165 kts 176°
2026-04-24 11:36 48.82361 8.60132 7234 ft 165 kts 176°
2026-04-24 11:36 48.81214 8.60240 7232 ft 165 kts 176°
2026-04-24 11:37 48.80068 8.60349 7233 ft 164 kts 176°
2026-04-24 11:37 48.78925 8.60459 7231 ft 165 kts 176°
2026-04-24 11:37 48.77410 8.60605 7231 ft 164 kts 176°
2026-04-24 11:37 48.76269 8.60721 7231 ft 164 kts 176°
2026-04-24 11:38 48.75498 8.60796 7232 ft 165 kts 176°
2026-04-24 11:38 48.74354 8.60903 7232 ft 165 kts 176°
2026-04-24 11:38 48.73210 8.61017 7232 ft 165 kts 176°
2026-04-24 11:38 48.72066 8.61136 7233 ft 165 kts 176°
2026-04-24 11:39 48.70921 8.61255 7232 ft 165 kts 176°
2026-04-24 11:39 48.69788 8.61371 7231 ft 165 kts 176°
2026-04-24 11:39 48.68646 8.61483 7232 ft 164 kts 176°
2026-04-24 11:39 48.67499 8.61593 7233 ft 166 kts 176°
2026-04-24 11:40 48.66351 8.61703 7236 ft 165 kts 176°
2026-04-24 11:40 48.65208 8.61820 7232 ft 164 kts 176°
2026-04-24 11:40 48.64067 8.61932 7231 ft 164 kts 176°
2026-04-24 11:40 48.62926 8.62048 7231 ft 164 kts 175°
2026-04-24 11:41 48.61786 8.62178 7231 ft 164 kts 176°
2026-04-24 11:41 48.60665 8.62280 7233 ft 163 kts 176°
2026-04-24 11:41 48.59530 8.62383 7233 ft 163 kts 176°
2026-04-24 11:41 48.58395 8.62493 7231 ft 163 kts 176°
2026-04-24 11:42 48.57261 8.62605 7231 ft 163 kts 176°
2026-04-24 11:42 48.56125 8.62711 7231 ft 163 kts 176°
2026-04-24 11:42 48.54985 8.62814 7232 ft 164 kts 176°
2026-04-24 11:42 48.53844 8.62930 7231 ft 164 kts 175°
2026-04-24 11:43 48.52706 8.63051 7232 ft 164 kts 176°
2026-04-24 11:43 48.51570 8.63164 7232 ft 164 kts 176°
2026-04-24 11:43 48.50434 8.63278 7233 ft 164 kts 176°
2026-04-24 11:43 48.49287 8.63391 7234 ft 165 kts 176°
2026-04-24 11:44 48.48142 8.63495 7232 ft 164 kts 176°
2026-04-24 11:44 48.47004 8.63613 7230 ft 164 kts 175°
2026-04-24 11:44 48.45862 8.63732 7231 ft 165 kts 175°
2026-04-24 11:44 48.44722 8.63838 7234 ft 165 kts 176°
2026-04-24 11:45 48.43576 8.63949 7233 ft 164 kts 175°
2026-04-24 11:45 48.42441 8.64066 7231 ft 163 kts 176°
2026-04-24 11:45 48.41306 8.64174 7231 ft 163 kts 176°
2026-04-24 11:45 48.40174 8.64283 7231 ft 163 kts 176°
2026-04-24 11:46 48.39061 8.64396 7231 ft 163 kts 176°
2026-04-24 11:46 48.37930 8.64598 7235 ft 165 kts 166°
2026-04-24 11:46 48.36872 8.65239 7235 ft 163 kts 148°
2026-04-24 11:46 48.35996 8.66304 7227 ft 163 kts 132°
2026-04-24 11:47 48.35243 8.67584 7223 ft 163 kts 129°
2026-04-24 11:47 48.34509 8.68884 7225 ft 163 kts 128°
2026-04-24 11:47 48.33783 8.70192 7221 ft 162 kts 128°
2026-04-24 11:47 48.33034 8.71457 7221 ft 161 kts 131°
2026-04-24 11:48 48.32271 8.72692 7221 ft 161 kts 131°
2026-04-24 11:48 48.31500 8.73922 7221 ft 162 kts 131°
2026-04-24 11:48 48.30725 8.75141 7222 ft 161 kts 133°
2026-04-24 11:48 48.29946 8.76337 7223 ft 162 kts 133°
2026-04-24 11:49 48.29143 8.77540 7223 ft 163 kts 134°
2026-04-24 11:49 48.28334 8.78736 7224 ft 163 kts 134°
2026-04-24 11:49 48.27534 8.79931 7220 ft 162 kts 133°
2026-04-24 11:49 48.26736 8.81131 7226 ft 163 kts 133°
2026-04-24 11:50 48.25926 8.82335 7221 ft 164 kts 134°
2026-04-24 11:50 48.25114 8.83533 7225 ft 164 kts 133°
2026-04-24 11:50 48.24315 8.84741 7224 ft 163 kts 134°
2026-04-24 11:50 48.23486 8.85927 7224 ft 165 kts 135°
2026-04-24 11:51 48.22671 8.87108 7223 ft 164 kts 134°
2026-04-24 11:51 48.21853 8.88301 7220 ft 165 kts 135°
2026-04-24 11:51 48.21020 8.89477 7223 ft 164 kts 135°
2026-04-24 11:51 48.20188 8.90653 7222 ft 164 kts 135°
2026-04-24 11:52 48.19372 8.91849 7219 ft 164 kts 133°
2026-04-24 11:52 48.18560 8.93060 7221 ft 166 kts 132°
2026-04-24 11:52 48.17768 8.94306 7224 ft 164 kts 132°
2026-04-24 11:52 48.16951 8.95514 7223 ft 165 kts 136°
2026-04-24 11:53 48.16115 8.96687 7221 ft 164 kts 135°
2026-04-24 11:53 48.15291 8.97864 7214 ft 163 kts 134°
2026-04-24 11:53 48.14473 8.99045 7212 ft 164 kts 136°
2026-04-24 11:53 48.13650 9.00217 7214 ft 163 kts 135°
2026-04-24 11:54 48.12829 9.01392 7212 ft 164 kts 135°
2026-04-24 11:54 48.12001 9.02556 7216 ft 163 kts 134°
2026-04-24 11:54 48.11189 9.03745 7215 ft 163 kts 135°
2026-04-24 11:54 48.10368 9.04916 7214 ft 163 kts 135°
2026-04-24 11:55 48.09551 9.06091 7212 ft 163 kts 135°
2026-04-24 11:55 48.08737 9.07267 7211 ft 163 kts 134°
2026-04-24 11:55 48.07937 9.08430 7214 ft 162 kts 136°
2026-04-24 11:55 48.07129 9.09613 7214 ft 162 kts 134°
2026-04-24 11:56 48.06320 9.10787 7125 ft 164 kts 135°
2026-04-24 11:56 48.05496 9.11980 6970 ft 166 kts 135°
2026-04-24 11:56 48.04668 9.13177 6876 ft 164 kts 135°
2026-04-24 11:56 48.03848 9.14350 6794 ft 163 kts 135°
2026-04-24 11:57 48.03019 9.15557 6569 ft 169 kts 135°
2026-04-24 11:57 48.02174 9.16774 6451 ft 167 kts 135°
2026-04-24 11:57 48.01337 9.17973 6330 ft 166 kts 135°
2026-04-24 11:57 48.00521 9.19191 6252 ft 166 kts 134°
2026-04-24 11:58 47.99689 9.20398 6089 ft 168 kts 136°
2026-04-24 11:58 47.98830 9.21571 5972 ft 165 kts 136°
2026-04-24 11:58 47.98001 9.22744 5866 ft 164 kts 136°
2026-04-24 11:58 47.97175 9.23931 5729 ft 165 kts 136°
2026-04-24 11:59 47.96366 9.25106 5630 ft 164 kts 136°
2026-04-24 11:59 47.95562 9.26337 5390 ft 168 kts 133°
2026-04-24 11:59 47.94760 9.27602 5218 ft 166 kts 134°
2026-04-24 11:59 47.93968 9.28808 5105 ft 161 kts 135°
2026-04-24 12:00 47.93188 9.29968 4973 ft 155 kts 136°
2026-04-24 12:00 47.92412 9.31071 4857 ft 153 kts 138°
2026-04-24 12:00 47.91612 9.32118 4739 ft 153 kts 141°
2026-04-24 12:00 47.90767 9.33080 4572 ft 153 kts 142°
2026-04-24 12:01 47.89980 9.34102 4517 ft 147 kts 139°
2026-04-24 12:01 47.89235 9.35097 4525 ft 141 kts 138°
2026-04-24 12:01 47.88511 9.36091 4429 ft 142 kts 138°
2026-04-24 12:01 47.87777 9.37116 4322 ft 145 kts 138°
2026-04-24 12:02 47.87038 9.38116 4239 ft 143 kts 138°
2026-04-24 12:02 47.86297 9.39093 4091 ft 144 kts 137°
2026-04-24 12:02 47.85577 9.40080 4067 ft 134 kts 140°
2026-04-24 12:02 47.84871 9.40880 4057 ft 130 kts 143°
2026-04-24 12:03 47.84141 9.41636 4085 ft 121 kts 146°
2026-04-24 12:03 47.83430 9.42300 4009 ft 124 kts 149°
2026-04-24 12:03 47.82698 9.42984 3980 ft 124 kts 141°
2026-04-24 12:03 47.82073 9.43854 3948 ft 122 kts 131°
2026-04-24 12:04 47.81513 9.44803 3836 ft 122 kts 129°
2026-04-24 12:04 47.81048 9.45641 3761 ft 121 kts 127°
2026-04-24 12:04 47.80707 9.46243 3686 ft 122 kts 130°
2026-04-24 12:05 47.80115 9.47203 3571 ft 128 kts 133°
2026-04-24 12:05 47.79501 9.48132 3500 ft 123 kts 134°
2026-04-24 12:05 47.78893 9.49026 3415 ft 123 kts 134°
2026-04-24 12:05 47.78285 9.49937 3309 ft 124 kts 132°
2026-04-24 12:06 47.77703 9.50871 3236 ft 122 kts 131°
2026-04-24 12:06 47.77126 9.51785 3150 ft 123 kts 130°
2026-04-24 12:06 47.76555 9.52733 3069 ft 123 kts 131°
2026-04-24 12:06 47.75990 9.53678 3033 ft 122 kts 130°
2026-04-24 12:07 47.75404 9.54586 3025 ft 120 kts 134°
2026-04-24 12:07 47.74792 9.55433 2952 ft 120 kts 137°
2026-04-24 12:07 47.74071 9.56027 2840 ft 121 kts 165°
2026-04-24 12:07 47.73247 9.56055 2753 ft 117 kts 187°
2026-04-24 12:08 47.72464 9.55858 2684 ft 108 kts 192°
2026-04-24 12:08 47.71752 9.55630 2593 ft 102 kts 193°
2026-04-24 12:08 47.71068 9.55408 2478 ft 100 kts 191°
2026-04-24 12:08 47.70408 9.55229 2353 ft 96 kts 189°
2026-04-24 12:09 47.69736 9.55062 2223 ft 96 kts 189°
2026-04-24 12:09 47.69100 9.54905 2092 ft 91 kts 190°
2026-04-24 12:09 47.68534 9.54535 1928 ft 85 kts 218°
2026-04-24 12:09 47.68177 9.53897 1743 ft 79 kts 244°
2026-04-24 12:10 47.67923 9.53194 1582 ft 77 kts 242°
2026-04-24 12:10 47.67658 9.52507 1449 ft 77 kts 241°
2026-04-24 12:10 47.67408 9.51869 1368 ft 59 kts 238°
2026-04-24 12:11 47.67175 9.51262 1372 ft 13 kts 240°
2026-04-24 12:11 47.67103 9.51264 1371 ft 12 kts 139°
2026-04-24 12:11 47.67055 9.51323 1370 ft 5 kts 141°
2026-04-24 12:11 47.67044 9.51335 1370 ft 0 kts 146°
2026-04-24 12:12 47.67017 9.51316 1369 ft 12 kts 233°
2026-04-24 12:12 47.66972 9.51197 1369 ft 12 kts 242°
2026-04-24 12:12 47.66920 9.51074 1369 ft 15 kts 240°
2026-04-24 12:12 47.66864 9.50929 1370 ft 17 kts 240°
2026-04-24 12:13 47.66801 9.50790 1370 ft 17 kts 222°
2026-04-24 12:13 47.66698 9.50705 1370 ft 10 kts 183°
2026-04-24 12:13 47.66662 9.50723 1370 ft 1 kts 281°
2026-04-24 12:13 47.66664 9.50719 1370 ft 0 kts 330°